Hourly Weather Cegrane

Today, 16 June, Wednesday

Time Temperature Precipitation Wind Pressure Humidity
00:00 +10°C° 0 mm 2 mps 692 mmHg 82%
01:00 +10°C° 0 mm 2 mps 692 mmHg 82%
02:00 +12°C° 0 mm 2 mps 692 mmHg 80%
03:00 +13°C° 0 mm 1 mps 692 mmHg 78%
04:00 +13°C° 0 mm 1 mps 692 mmHg 76%
05:00 +15°C° 0 mm 1 mps 692 mmHg 74%
06:00 +16°C° 0 mm 1 mps 693 mmHg 71%
07:00 +19°C° 0 mm 1 mps 693 mmHg 68%
08:00 +19°C° 0 mm 2 mps 693 mmHg 65%
09:00 +20°C° 0 mm 2 mps 693 mmHg 63%
10:00 +21°C° 0 mm 2 mps 693 mmHg 60%
11:00 +21°C° 0.1 mm 2 mps 693 mmHg 59%
12:00 +21°C° 0.1 mm 2 mps 693 mmHg 59%
13:00 +23°C° 0.1 mm 2 mps 693 mmHg 58%
14:00 +23°C° 0.1 mm 2 mps 693 mmHg 59%
15:00 +23°C° 0.1 mm 2 mps 693 mmHg 60%
16:00 +23°C° 0.1 mm 2 mps 693 mmHg 62%
17:00 +21°C° 0.1 mm 1 mps 693 mmHg 67%
18:00 +20°C° 0.1 mm 1 mps 693 mmHg 72%
19:00 +18°C° 0.1 mm 1 mps 693 mmHg 77%
20:00 +18°C° 0 mm 1 mps 694 mmHg 79%
21:00 +16°C° 0 mm 1 mps 694 mmHg 80%
22:00 +15°C° 0 mm 1 mps 694 mmHg 82%
23:00 +15°C° 0 mm 1 mps 694 mmHg 82%

Tomorrow, 17 June, Thursday

Time Temperature Precipitation Wind Pressure Humidity
00:00 +15°C° 0 mm 1 mps 694 mmHg 83%
01:00 +14°C° 0 mm 1 mps 694 mmHg 83%
02:00 +14°C° 0 mm 1 mps 694 mmHg 83%
03:00 +14°C° 0 mm 1 mps 694 mmHg 83%
04:00 +14°C° 0 mm 1 mps 694 mmHg 83%
05:00 +15°C° 0 mm 1 mps 694 mmHg 79%
06:00 +18°C° 0 mm 1 mps 695 mmHg 74%
07:00 +20°C° 0 mm 1 mps 695 mmHg 69%
08:00 +21°C° 0.1 mm 1 mps 695 mmHg 65%
09:00 +23°C° 0.1 mm 1 mps 695 mmHg 61%
10:00 +24°C° 0.1 mm 1 mps 695 mmHg 57%
11:00 +24°C° 0.7 mm 1 mps 695 mmHg 56%
12:00 +25°C° 0.7 mm 1 mps 695 mmHg 56%
13:00 +25°C° 0.7 mm 1 mps 695 mmHg 55%
14:00 +25°C° 0.9 mm 1 mps 695 mmHg 57%
15:00 +24°C° 0.9 mm 1 mps 695 mmHg 59%
16:00 +24°C° 0.9 mm 1 mps 695 mmHg 61%
17:00 +22°C° 0.7 mm 1 mps 695 mmHg 67%
18:00 +21°C° 0.7 mm 1 mps 695 mmHg 74%
19:00 +19°C° 0.7 mm 1 mps 695 mmHg 80%
20:00 +18°C° 0.3 mm 1 mps 695 mmHg 80%
21:00 +18°C° 0.3 mm 1 mps 695 mmHg 80%
22:00 +18°C° 0.3 mm 1 mps 695 mmHg 80%
23:00 +16°C° 0 mm 1 mps 695 mmHg 80%

Day after tomorrow, 18 June, Friday

Time Temperature Precipitation Wind Pressure Humidity
00:00 +16°C° 0 mm 1 mps 695 mmHg 80%
01:00 +16°C° 0 mm 1 mps 694 mmHg 80%
02:00 +15°C° 0 mm 1 mps 694 mmHg 81%
03:00 +15°C° 0 mm 1 mps 694 mmHg 81%
04:00 +15°C° 0 mm 1 mps 694 mmHg 82%
05:00 +18°C° 0 mm 1 mps 695 mmHg 79%
06:00 +19°C° 0 mm 1 mps 695 mmHg 75%
07:00 +21°C° 0 mm 1 mps 695 mmHg 72%
08:00 +22°C° 0.2 mm 1 mps 695 mmHg 67%
09:00 +24°C° 0.2 mm 1 mps 695 mmHg 63%
10:00 +25°C° 0.2 mm 1 mps 695 mmHg 58%
11:00 +26°C° 0.4 mm 1 mps 695 mmHg 56%
12:00 +26°C° 0.4 mm 1 mps 695 mmHg 53%
13:00 +27°C° 0.4 mm 1 mps 695 mmHg 51%
14:00 +27°C° 0.3 mm 1 mps 695 mmHg 51%
15:00 +26°C° 0.3 mm 1 mps 694 mmHg 52%
16:00 +26°C° 0.3 mm 1 mps 694 mmHg 52%
17:00 +24°C° 0.1 mm 1 mps 694 mmHg 59%
18:00 +23°C° 0.1 mm 1 mps 694 mmHg 65%
19:00 +21°C° 0.1 mm 1 mps 694 mmHg 71%
20:00 +20°C° 0.8 mm 1 mps 694 mmHg 76%
21:00 +19°C° 0.8 mm 1 mps 694 mmHg 81%
22:00 +17°C° 0.8 mm 2 mps 694 mmHg 86%
23:00 +16°C° 0.4 mm 1 mps 694 mmHg 85%

19 June, Saturday

Time Temperature Precipitation Wind Pressure Humidity
00:00 +16°C° 0.4 mm 1 mps 694 mmHg 85%
01:00 +16°C° 0.4 mm 1 mps 694 mmHg 84%
02:00 +16°C° 0 mm 1 mps 693 mmHg 84%
03:00 +16°C° 0 mm 1 mps 693 mmHg 85%
04:00 +15°C° 0 mm 1 mps 693 mmHg 85%
05:00 +18°C° 0 mm 1 mps 693 mmHg 81%
06:00 +20°C° 0 mm 1 mps 694 mmHg 78%
07:00 +21°C° 0 mm 1 mps 694 mmHg 74%
08:00 +21°C° 0.1 mm 2 mps 694 mmHg 71%
09:00 +23°C° 0.1 mm 2 mps 694 mmHg 68%
10:00 +24°C° 0.1 mm 2 mps 694 mmHg 64%
11:00 +24°C° 0.6 mm 2 mps 694 mmHg 64%
12:00 +24°C° 0.6 mm 3 mps 694 mmHg 65%
13:00 +25°C° 0.6 mm 3 mps 693 mmHg 65%
14:00 +24°C° 0.6 mm 2 mps 693 mmHg 68%
15:00 +24°C° 0.6 mm 2 mps 693 mmHg 70%
16:00 +24°C° 0.6 mm 2 mps 693 mmHg 72%
17:00 +21°C° 0.4 mm 2 mps 693 mmHg 78%
18:00 +20°C° 0.4 mm 2 mps 693 mmHg 83%
19:00 +18°C° 0.4 mm 2 mps 693 mmHg 88%
20:00 +19°C° 0 mm 1 mps 693 mmHg 89%
21:00 +18°C° 0 mm 1 mps 693 mmHg 90%
22:00 +16°C° 0 mm 1 mps 694 mmHg 90%
23:00 +16°C° 0 mm 1 mps 693 mmHg 89%

20 June, Sunday

Time Temperature Precipitation Wind Pressure Humidity
00:00 +16°C° 0 mm 1 mps 693 mmHg 88%
01:00 +16°C° 0 mm 1 mps 693 mmHg 87%
02:00 +16°C° 0 mm 1 mps 693 mmHg 87%
03:00 +16°C° 0 mm 1 mps 693 mmHg 87%
04:00 +16°C° 0 mm 1 mps 693 mmHg 87%
05:00 +18°C° 0.2 mm 1 mps 693 mmHg 85%
06:00 +19°C° 0.2 mm 1 mps 693 mmHg 83%
07:00 +20°C° 0.2 mm 2 mps 694 mmHg 81%
08:00 +20°C° 0.6 mm 2 mps 694 mmHg 78%
09:00 +21°C° 0.6 mm 2 mps 694 mmHg 76%
10:00 +23°C° 0.6 mm 2 mps 694 mmHg 73%
11:00 +24°C° 0.8 mm 2 mps 693 mmHg 71%
12:00 +24°C° 0.8 mm 2 mps 693 mmHg 68%
13:00 +25°C° 0.8 mm 2 mps 693 mmHg 65%
14:00 +24°C° 0.8 mm 2 mps 693 mmHg 66%
15:00 +24°C° 0.8 mm 2 mps 693 mmHg 67%
16:00 +24°C° 0.8 mm 2 mps 693 mmHg 68%
17:00 +23°C° 0.5 mm 1 mps 693 mmHg 73%
18:00 +21°C° 0.5 mm 1 mps 693 mmHg 78%
19:00 +20°C° 0.5 mm 1 mps 692 mmHg 83%
20:00 +19°C° 0.1 mm 1 mps 693 mmHg 84%
21:00 +18°C° 0.1 mm 1 mps 693 mmHg 85%
22:00 +18°C° 0.1 mm 1 mps 693 mmHg 87%
23:00 +16°C° 0.1 mm 1 mps 693 mmHg 87%

21 June, Monday

Time Temperature Precipitation Wind Pressure Humidity
00:00 +16°C° 0.1 mm 1 mps 692 mmHg 88%
01:00 +16°C° 0.1 mm 1 mps 692 mmHg 88%
02:00 +16°C° 0 mm 1 mps 692 mmHg 88%
03:00 +15°C° 0 mm 1 mps 692 mmHg 88%
04:00 +15°C° 0 mm 1 mps 692 mmHg 88%
05:00 +16°C° 0 mm 0 mps 692 mmHg 85%
06:00 +17°C° 0 mm 0 mps 692 mmHg 82%
07:00 +19°C° 0 mm 0 mps 693 mmHg 78%
08:00 +20°C° 0.1 mm 0 mps 693 mmHg 73%
09:00 +24°C° 0.1 mm 1 mps 693 mmHg 67%
10:00 +25°C° 0.1 mm 1 mps 693 mmHg 62%
11:00 +26°C° 0.4 mm 1 mps 693 mmHg 60%
12:00 +26°C° 0.4 mm 1 mps 693 mmHg 59%
13:00 +25°C° 0.4 mm 0 mps 692 mmHg 57%
14:00 +27°C° 0.4 mm 1 mps 692 mmHg 57%
15:00 +27°C° 0.4 mm 1 mps 692 mmHg 57%
16:00 +26°C° 0.4 mm 1 mps 692 mmHg 57%
17:00 +25°C° 0.2 mm 1 mps 692 mmHg 63%
18:00 +23°C° 0.2 mm 1 mps 692 mmHg 69%
19:00 +21°C° 0.2 mm 2 mps 691 mmHg 76%
20:00 +20°C° 0.1 mm 2 mps 691 mmHg 78%
21:00 +19°C° 0.1 mm 2 mps 692 mmHg 81%
22:00 +18°C° 0.1 mm 2 mps 692 mmHg 83%
23:00 +18°C° 0 mm 2 mps 691 mmHg 84%
Show more

We Need Your Consent

Meteoprog and our Service Providers may store and access personal data such as cookies, device identifiers or other similar technologies on your device and process such data to personalise content and ads, as well as provide social media features and to analyse the traffic.

  • Store and/or access information on your device

    Cookies, device identifiers or other information can be stored or accessed on your device for the purposes indicated above.

  • Personalised ads and content, ad and content measurement, audience insights, and products development

    Ads and content can be personalised based on a profile. More data can be added to better personalise ads and content. Ad and content performance can be measured. Insights about the audience who saw the ads and content can be derived. Such data can be used to develop or improve user’s experience, systems and software.

By clicking ‘I Agree’ you will allow the use of indicated cookies, device identifiers, web beacons or other similar technologies. Your settings can be changed in the browser on your device.

For certain purposes, legitimate interests may be relied on, rather than consent. You can read more about this in our Privacy and Cookie Policy.